FW4341 Weather Reports


time (UTC)temp
C
wind
direction
speed
KPH
gust
KPH
rain 1hr
cm
rain 24hr
cm
rain mn
cm
humidity
%
barometer
mb
20260505013056 25 65 6.4 12.9 0.00 0.00 0.00 73 1017.0
20260505011525 25 177 4.8 12.9 0.00 0.00 0.00 75 1017.3
20260505010107 25 125 3.2 14.5 0.00 0.00 0.00 75 1017.6
20260505004503 24 178 4.8 11.3 0.00 0.00 0.00 75 1018.0
20260505003039 24 203 3.2 9.7 0.00 0.00 0.00 75 1018.0
20260505001559 24 189 3.2 14.5 0.00 0.00 0.00 76 1018.1
20260505001501 24 174 4.8 14.5 0.00 0.00 0.00 76 1018.2
20260505000033 23 118 6.4 12.9 0.00 0.00 0.00 77 1018.4
20260504234549 23 184 1.6 8.0 0.00 0.00 0.00 79 1018.5
20260504233005 23 163 3.2 11.3 0.00 0.00 0.00 83 1018.6
20260504231531 22 169 3.2 11.3 0.00 0.00 0.00 83 1018.7
20260504230050 22 209 4.8 14.5 0.00 0.00 0.00 85 1018.7
20260504224537 22 221 4.8 12.9 0.00 0.00 0.00 86 1018.7
20260504223002 21 183 8.0 12.9 0.00 0.00 0.00 86 1018.8
20260504221545 21 187 6.4 11.3 0.00 0.00 0.00 87 1018.8
20260504220051 21 201 4.8 11.3 0.00 0.00 0.00 89 1018.6
20260504214505 20 181 4.8 11.3 0.00 0.00 0.00 91 1018.6
20260504213047 20 188 3.2 8.0 0.00 0.00 0.00 93 1018.4
20260504211550 20 176 3.2 9.7 0.00 0.00 0.00 94 1018.4
20260504210019 19 198 1.6 6.4 0.00 0.03 0.00 94 1018.3
20260504204538 18 197 1.6 4.8 0.00 0.03 0.00 94 1018.0
20260504203045 18 179 0.0 6.4 0.00 0.03 0.00 94 1017.8
20260504201526 18 206 1.6 8.0 0.00 0.03 0.00 94 1017.7
20260504200049 18 195 3.2 8.0 0.00 0.08 0.00 94 1017.6
20260504194529 18 190 0.0 4.8 0.00 0.08 0.00 94 1017.4
20260504193041 18 205 0.0 4.8 0.00 0.08 0.00 93 1017.2
20260504191538 19 206 3.2 8.0 0.00 0.08 0.00 93 1017.1
20260504190004 19 198 1.6 6.4 0.00 0.18 0.00 93 1017.0
20260504184521 19 176 1.6 6.4 0.00 0.18 0.00 93 1016.8
20260504183048 19 194 1.6 6.4 0.00 0.18 0.00 93 1016.8
20260504181518 19 174 3.2 8.0 0.00 0.18 0.00 93 1016.9
20260504180046 19 207 3.2 9.7 0.00 0.20 0.00 93 1016.7
20260504174502 19 227 4.8 9.7 0.00 0.20 0.00 93 1016.8
20260504173022 19 185 3.2 9.7 0.00 0.20 0.00 93 1016.7
20260504171554 20 192 1.6 8.0 0.00 0.20 0.00 93 1016.7
20260504081555 22 121 1.6 6.4 0.00 0.38 0.38 86 1017.8
20260504044550 24 115 9.7 17.7 0.00 0.38 0.38 76 1016.7
20260504043016 25 164 8.0 17.7 0.00 0.38 0.38 76 1016.7
20260504041540 25 181 6.4 17.7 0.00 0.38 0.38 75 1016.8
20260504040123 25 131 4.8 14.5 0.00 0.38 0.38 72 1016.7
20260504034525 25 140 4.8 16.1 0.00 0.38 0.38 74 1016.9
20260504033049 25 95 4.8 17.7 0.00 0.38 0.38 74 1017.0
20260504031516 25 114 4.8 14.5 0.00 0.38 0.38 74 1017.2
20260504030039 24 175 6.4 14.5 0.00 0.38 0.38 76 1017.3
20260504024559 25 86 8.0 19.3 0.00 0.38 0.38 76 1017.4
20260504023017 25 105 6.4 17.7 0.00 0.38 0.38 76 1017.7
20260504021551 24 83 8.0 14.5 0.00 0.38 0.38 78 1017.8
20260504020009 25 134 9.7 20.9 0.00 0.38 0.38 76 1018.1
20260504014605 24 109 8.0 16.1 0.00 0.38 0.38 78 1018.1